User: anonymous   Login
Location: Unspecified
(0.0000°N, 0.0000°E)
Time: 12:45:18
(UTC+00:00)
Language:

SHIYUAN 3 (SY-3) - Orbit

View from above orbital plane
View from above orbital plane
View from above satellite
View from above satellite

Ground track
Ground track

The orbit data is extracted from the following two-line orbital elements,

1 33433U 08056A   18201.18223560 -.00000021  00000-0  90831-5 0  9994
2 33433  98.6612 194.0585 0013268 329.5175  30.5236 14.29698700506291
Epoch (UTC): 20 July 2018 04:22:25
Eccentricity: 0.0013268
inclination: 98.6612°
perigee height: 783 km
apogee height: 802 km
right ascension of ascending node: 194.0585°
argument of perigee: 329.5175°
revolutions per day: 14.29698700
mean anomaly at epoch: 30.5236°
orbit number at epoch: 50629

The dashed part of the orbit path shows where the satellite is in the earth's shadow,  

DLR